This is the latest recevied weather packets stored in our database for station/object Aulendorf. If no packets are shown the sender has not sent any weather packets the latest 10 day(s).
| Time | Temp. | Humidity | Pressure | Rain* | Wind** | Luminosity | Snow |
|---|---|---|---|---|---|---|---|
| 1777168932 | 4.44° C | 80% | 1019.1 hPa | 0 mm | - | - | - |
| 1777167132 | 4.44° C | 78% | 1019 hPa | 0 mm | - | - | - |
| 1777165333 | 5° C | 78% | 1018.9 hPa | 0 mm | - | - | - |
| 1777163529 | 6.11° C | 75% | 1018.6 hPa | 0 mm | - | - | - |
| 1777161729 | 6.67° C | 72% | 1018.6 hPa | 0 mm | - | - | - |
| 1777159929 | 7.22° C | 66% | 1018.4 hPa | 0 mm | - | - | - |
| 1777158129 | 7.78° C | 65% | 1018.3 hPa | 0 mm | - | - | - |
| 1777156330 | 8.89° C | 64% | 1018.2 hPa | 0 mm | - | - | - |
| 1777154529 | 10° C | 63% | 1018 hPa | 0 mm | - | - | - |
| 1777152732 | 11.11° C | 62% | 1018 hPa | 0 mm | - | - | - |
| 1777150929 | 12.22° C | 50% | 1017.9 hPa | 0 mm | - | - | - |
| 1777149130 | 12.78° C | 52% | 1017.6 hPa | 0 mm | - | - | - |
| 1777147329 | 13.89° C | 52% | 1017.3 hPa | 0 mm | - | - | - |
| 1777145529 | 15.56° C | 46% | 1016.8 hPa | 0 mm | - | - | - |
| 1777143729 | 16.11° C | 45% | 1016.1 hPa | 0 mm | - | - | - |
| 1777141929 | 17.78° C | 41% | 1015.6 hPa | 0 mm | - | - | - |
| 1777140130 | 18.89° C | 37% | 1015.2 hPa | 0 mm | - | - | - |
| 1777138331 | 19.44° C | 33% | 1014.8 hPa | 0 mm | - | - | - |
| 1777136530 | 21.11° C | 29% | 1014.7 hPa | 0 mm | - | - | - |
| 1777134731 | 22.78° C | 25% | 1014.5 hPa | 0 mm | - | - | - |
| 1777132929 | 22.22° C | 26% | 1014.5 hPa | 0 mm | - | - | - |
| 1777131129 | 22.78° C | 27% | 1014.5 hPa | 0 mm | - | - | - |
| 1777129330 | 22.78° C | 27% | 1014.5 hPa | 0 mm | - | - | - |
| 1777127530 | 22.22° C | 27% | 1014.5 hPa | 0 mm | - | - | - |
| 1777125730 | 22.22° C | 27% | 1014.7 hPa | 0 mm | - | - | - |
* Rain since midnight (hover to see other rain measurements)
** Current wind speed in m/s (hover to see current wind gust speed)